Regional Weather Roundup
Issued by NWS

Home | Current Version | Previous Version | Graphics & Text | Print | Product List | Glossary On
Versions: 1 2 3 4 5 6 7 8 9 10 11 12 13 14 15 16 17 18 19 20 21 22 23 24 25 26 27 28 29 30 31 32 33 34 35 36 37 38 39 40 41 42 43 44 45 46 47 48 49 50
000
ASUS45 KPSR 210200
RWRAZ

PRELIMINARY ARIZONA REGIONAL HOURLY WEATHER ROUNDUP
NATIONAL WEATHER SERVICE PHOENIX AZ
700 PM MST SAT SEP 20 2014

NOTE: FAIR INDICATES FEW OR NO CLOUDS BELOW 12,000 FEET WITH NO
SIGNIFICANT WEATHER AND/OR OBSTRUCTIONS TO VISIBILITY.

AZZ001>003-036-210300-
NORTHWEST ARIZONA

CITY           SKY/WX    TMP DP  RH WIND       PRES   REMARKS
KINGMAN        PTCLDY    83  51  33 SW12      29.96R
$$

AZZ004>008-015-016-018-210300-
NORTH CENTRAL ARIZONA

CITY           SKY/WX    TMP DP  RH WIND       PRES   REMARKS
GRAND CANYON   CLOUDY    59  55  87 CALM      30.20S
PRESCOTT       MOCLDY    75  51  43 SW3       30.09R
FLAGSTAFF      MOCLDY    63  54  72 CALM      30.24R
PAYSON         MOCLDY    64  61  88 NW6       30.13R
PAGE           MOCLDY    87  42  20 N8        29.97F
$$

AZZ009>014-017-210300-
NORTHEAST ARIZONA

CITY           SKY/WX    TMP DP  RH WIND       PRES   REMARKS
WINSLOW        NOT AVBL
SAINT JOHNS    CLOUDY    76  52  43 S16       30.14R
SHOW LOW       CLOUDY    66  55  68 S9        30.21R
$$

AZZ023-210300-
GREATER PHOENIX AREA

CITY           SKY/WX    TMP DP  RH WIND       PRES   REMARKS
PHOENIX        MOCLDY    93  64  38 CALM      29.79R
GLENDALE       MOCLDY    91  64  40 SE3       29.81R
DEER VALLEY    PTCLDY    90  63  40 SW3       29.82R
SCOTTSDALE     PTCLDY    91  64  40 CALM      29.84R
MESA-FALCON    MOCLDY    88  66  48 S7        29.82
MESA-GATEWAY   MOCLDY    90  66  45 SW5       29.85R
CHANDLER       MOCLDY    88  66  48 VRB5      29.82R
$$

AZZ027-028-210300-
SOUTHWEST MARICOPA COUNTY AND PINAL COUNTY

CITY           SKY/WX    TMP DP  RH WIND       PRES   REMARKS
CASA GRANDE    PTCLDY    86  66  51 CALM      29.84S
$$

AZZ503-504-507>509-210300-
SOUTHEAST ARIZONA

CITY           SKY/WX    TMP DP  RH WIND       PRES   REMARKS
TUCSON         CLEAR     85  64  49 W6        29.94R
DAVIS-MONTHAN  CLEAR     84  66  54 NW9       29.93R
RYAN FIELD       N/A     84  64  51 W6        29.93R
NOGALES        PTCLDY    74  66  76 W3        30.03R
SIERRA VISTA   LGT RAIN  69  63  81 W9        30.08R
SAFFORD        LGT RAIN  81  67  62 CALM      29.93R
$$

AZZ020-021-025-026-031-210300-
SOUTHWEST ARIZONA

CITY           SKY/WX    TMP DP  RH WIND       PRES   REMARKS
YUMA           PTCLDY    94  57  28 S9        29.72R
$$

CAZ031-033-041-043-047-048-061-210300-
SOUTHERN CALIFORNIA

CITY           SKY/WX    TMP DP  RH WIND       PRES   REMARKS
DOWNTOWN L.A.  CLEAR     71  60  68 W5        29.89R
L.A. AIRPORT   PTCLDY    70  59  68 W10       29.90R
SAN DIEGO      PTCLDY    73  59  61 NW5       29.91R
BURBANK        CLEAR     72  59  63 S7        29.89R
ONTARIO        PTCLDY    75  60  59 SW12      29.89R
RIVERSIDE      CLEAR     75  60  59 W8        29.89R
PALM SPRINGS   CLEAR     92  55  28 NW20G29   29.76R
EL CENTRO NAS  CLEAR     95  54  25 W17       29.70R
IMPERIAL       CLEAR     96  57  27 NW3       29.69R
BLYTHE         CLEAR     97  57  26 S10       29.71S
$$

NVZ020-UTZ003-210300-
SOUTHERN NEVADA-UTAH

CITY           SKY/WX    TMP DP  RH WIND       PRES   REMARKS
LAS VEGAS      NOT AVBL
SALT LAKE CITY MOCLDY    72  54  53 W8        30.06R
$$

NMZ009-TXZ055-210300-
NEW MEXICO-WEST TEXAS

CITY           SKY/WX    TMP DP  RH WIND       PRES   REMARKS
ALBUQUERQUE    MOCLDY    79  49  34 SE13      30.13R
EL PASO        PTCLDY    80  63  55 E10       30.02R
$$


........................KEY........................
SKY/WX - SKY CONDITION/WEATHER
TMP    - TEMPERATURE IN FAHRENHEIT
DP     - DEW POINT IN FAHRENHEIT
RH     - RELATIVE HUMIDITY IN PERCENT
WIND   - DIRECTION AND SPEED IN MILES PER HOUR (MPH)
VRB    - VARIABLE WIND DIRECTION
PRES   - MEAN SEA LEVEL PRESSURE IN INCHES OF MERCURY
         F - FALLING PRESSURE   R - RISING PRESSURE
         S - STEADY PRESSURE
VSB    - VISIBILITY IN MILES
HX     - HEAT INDEX IN FAHRENHEIT
WCI    - WIND CHILL INDEX IN FAHRENHEIT
TC     - TEMPERATURE IN CELSIUS WHICH IS ALSO KNOWN AS
         TEMPERATURE IN CENTIGRADE
AFB    - AIR FORCE BASE
         LUKE AFB IS LUKE AIR FORCE BASE
         DAVIS-MONTHAN IS DAVIS-MONTHAN AIR FORCE BASE
NAS    - NAVAL AIR STATION
         EL CENTRO NAS IS EL CENTRO NAVAL AIR STATION
N/A    - NOT AVAILABLE



USA.gov is the U.S. government's official web portal to all federal, state and local government web resources and services.